User: anonymous   Login
Location: Taipo
(41.0000°S, 175.9500°E)
Time: 12:59:02
(UTC+00:00)
Language:

OAO 3 Rocket - Orbit

View from above orbital plane
View from above orbital plane
View from above satellite
View from above satellite

Ground track
Ground track

The orbit data is extracted from the following two-line orbital elements,

1 06155U 72065B   24171.91291829  .00001469  00000-0  21864-3 0  9997
2 06155  35.0040  17.0719 0034605 137.8448 222.4921 14.74515198748432
Epoch (UTC): 19 June 2024 21:54:36
Eccentricity: 0.0034605
inclination: 35.0040°
perigee height: 622 km
apogee height: 671 km
right ascension of ascending node: 17.0719°
argument of perigee: 137.8448°
revolutions per day: 14.74515198
mean anomaly at epoch: 222.4921°
orbit number at epoch: 74843

The dashed part of the orbit path shows where the satellite is in the earth's shadow,  

DLR